• In Uzbekistan
  • List of Countries
  • For 7 days
  • Water Temperature
  • Satellite Maps
  • Weather Map
  • Weather Widgets
  • user-avatar
    Login

    Hourly Weather Haldensleben

    Today, 24 November, Friday

    Time Temperature Precipitation Wind Pressure Humidity
    00:00 +10°C° 0 mm 4 mps 752 mmHg 87%
    01:00 +10°C° 0 mm 3 mps 752 mmHg 89%
    02:00 +9°C° 0 mm 3 mps 752 mmHg 90%
    03:00 +9°C° 0 mm 3 mps 752 mmHg 90%
    04:00 +9°C° 0 mm 2 mps 752 mmHg 91%
    05:00 +9°C° 0 mm 3 mps 752 mmHg 90%
    06:00 +8°C° 0 mm 4 mps 751 mmHg 89%
    07:00 +10°C° 0 mm 4 mps 751 mmHg 88%
    08:00 +9°C° 0.2 mm 5 mps 750 mmHg 84%
    09:00 +10°C° 0.2 mm 7 mps 750 mmHg 79%
    10:00 +11°C° 0.2 mm 8 mps 749 mmHg 75%
    11:00 +11°C° 0.1 mm 8 mps 749 mmHg 74%
    12:00 +12°C° 0.1 mm 8 mps 749 mmHg 73%
    13:00 +12°C° 0.1 mm 7 mps 749 mmHg 72%
    14:00 +11°C° 0.3 mm 7 mps 750 mmHg 75%
    15:00 +10°C° 0.3 mm 6 mps 750 mmHg 79%
    16:00 +9°C° 0.3 mm 5 mps 751 mmHg 83%
    17:00 +8°C° 0.1 mm 5 mps 752 mmHg 82%
    18:00 +7°C° 0.1 mm 4 mps 752 mmHg 82%
    19:00 +6°C° 0.1 mm 4 mps 753 mmHg 81%
    20:00 +7°C° 0 mm 3 mps 753 mmHg 84%
    21:00 +6°C° 0 mm 2 mps 754 mmHg 86%
    22:00 +7°C° 0 mm 1 mps 754 mmHg 88%
    23:00 +7°C° 0 mm 1 mps 754 mmHg 88%

    Tomorrow, 25 November, Saturday

    Time Temperature Precipitation Wind Pressure Humidity
    00:00 +7°C° 0 mm 1 mps 754 mmHg 88%
    01:00 +6°C° 0 mm 1 mps 754 mmHg 88%
    02:00 +6°C° 0 mm 1 mps 754 mmHg 87%
    03:00 +6°C° 0 mm 1 mps 753 mmHg 87%
    04:00 +6°C° 0 mm 1 mps 753 mmHg 87%
    05:00 +6°C° 0.5 mm 1 mps 752 mmHg 89%
    06:00 +5°C° 0.5 mm 2 mps 752 mmHg 90%
    07:00 +5°C° 0.5 mm 2 mps 751 mmHg 91%
    08:00 +5°C° 1 mm 2 mps 751 mmHg 92%
    09:00 +4°C° 1 mm 3 mps 751 mmHg 92%
    10:00 +4°C° 1 mm 3 mps 750 mmHg 92%
    11:00 +4°C° 0.9 mm 3 mps 751 mmHg 91%
    12:00 +4°C° 0.9 mm 3 mps 751 mmHg 90%
    13:00 +4°C° 0.9 mm 4 mps 751 mmHg 89%
    14:00 +4°C° 0.8 mm 4 mps 751 mmHg 87%
    15:00 +4°C° 0.8 mm 3 mps 752 mmHg 86%
    16:00 +4°C° 0.8 mm 3 mps 752 mmHg 85%
    17:00 +3°C° 0 mm 3 mps 753 mmHg 86%
    18:00 +3°C° 0 mm 3 mps 753 mmHg 87%
    19:00 +2°C° 0 mm 3 mps 754 mmHg 88%
    20:00 +2°C° 0 mm 3 mps 754 mmHg 88%
    21:00 +2°C° 0 mm 3 mps 755 mmHg 89%
    22:00 +1°C° 0 mm 3 mps 755 mmHg 89%
    23:00 +1°C° 0 mm 3 mps 756 mmHg 88%

    Day after tomorrow, 26 November, Sunday

    Time Temperature Precipitation Wind Pressure Humidity
    00:00 +1°C° 0 mm 3 mps 756 mmHg 88%
    01:00 0°C° 0 mm 4 mps 756 mmHg 87%
    02:00 0°C° 0 mm 4 mps 756 mmHg 86%
    03:00 0°C° 0 mm 4 mps 757 mmHg 85%
    04:00 0°C° 0 mm 4 mps 757 mmHg 85%
    05:00 0°C° 0 mm 4 mps 757 mmHg 85%
    06:00 -1°C° 0 mm 4 mps 758 mmHg 85%
    07:00 -1°C° 0 mm 4 mps 758 mmHg 85%
    08:00 0°C° 0 mm 5 mps 758 mmHg 83%
    09:00 0°C° 0 mm 5 mps 758 mmHg 81%
    10:00 +1°C° 0 mm 6 mps 758 mmHg 78%
    11:00 +1°C° 0 mm 6 mps 759 mmHg 76%
    12:00 +2°C° 0 mm 6 mps 759 mmHg 73%
    13:00 +3°C° 0 mm 6 mps 759 mmHg 71%
    14:00 +3°C° 0 mm 6 mps 759 mmHg 72%
    15:00 +2°C° 0 mm 6 mps 759 mmHg 74%
    16:00 +2°C° 0 mm 5 mps 759 mmHg 75%
    17:00 +2°C° 0 mm 5 mps 759 mmHg 77%
    18:00 +2°C° 0 mm 5 mps 759 mmHg 78%
    19:00 +1°C° 0 mm 5 mps 759 mmHg 79%
    20:00 +1°C° 0 mm 5 mps 759 mmHg 80%
    21:00 +1°C° 0 mm 5 mps 760 mmHg 81%
    22:00 0°C° 0 mm 5 mps 760 mmHg 82%
    23:00 0°C° 0 mm 5 mps 760 mmHg 83%

    27 November, Monday

    Time Temperature Precipitation Wind Pressure Humidity
    00:00 0°C° 0 mm 5 mps 760 mmHg 83%
    01:00 0°C° 0 mm 5 mps 760 mmHg 84%
    02:00 0°C° 0 mm 5 mps 760 mmHg 85%
    03:00 0°C° 0 mm 5 mps 760 mmHg 85%
    04:00 0°C° 0 mm 5 mps 759 mmHg 86%
    05:00 0°C° 0 mm 5 mps 759 mmHg 86%
    06:00 0°C° 0 mm 5 mps 759 mmHg 87%
    07:00 0°C° 0 mm 5 mps 760 mmHg 87%
    08:00 0°C° 0 mm 5 mps 760 mmHg 85%
    09:00 +1°C° 0 mm 5 mps 760 mmHg 83%
    10:00 +1°C° 0 mm 5 mps 760 mmHg 81%
    11:00 +2°C° 0 mm 5 mps 759 mmHg 78%
    12:00 +3°C° 0 mm 5 mps 759 mmHg 76%
    13:00 +3°C° 0 mm 5 mps 759 mmHg 74%
    14:00 +3°C° 0 mm 5 mps 759 mmHg 75%
    15:00 +3°C° 0 mm 4 mps 758 mmHg 76%
    16:00 +3°C° 0 mm 3 mps 758 mmHg 77%
    17:00 +3°C° 0.2 mm 4 mps 758 mmHg 78%
    18:00 +3°C° 0.2 mm 4 mps 757 mmHg 79%
    19:00 +3°C° 0.2 mm 4 mps 757 mmHg 80%
    20:00 +3°C° 0.5 mm 4 mps 756 mmHg 81%
    21:00 +2°C° 0.5 mm 5 mps 756 mmHg 82%
    22:00 +2°C° 0.5 mm 5 mps 755 mmHg 83%
    23:00 +2°C° 0.5 mm 5 mps 755 mmHg 83%

    28 November, Tuesday

    Time Temperature Precipitation Wind Pressure Humidity
    00:00 +3°C° 0.5 mm 5 mps 754 mmHg 83%
    01:00 +3°C° 0.5 mm 5 mps 754 mmHg 82%
    02:00 +2°C° 0.3 mm 5 mps 754 mmHg 82%
    03:00 +2°C° 0.3 mm 5 mps 753 mmHg 82%
    04:00 +2°C° 0.3 mm 5 mps 753 mmHg 82%
    05:00 +2°C° 0.2 mm 5 mps 752 mmHg 83%
    06:00 +2°C° 0.2 mm 5 mps 752 mmHg 83%
    07:00 +2°C° 0.2 mm 5 mps 752 mmHg 83%
    08:00 +2°C° 0.3 mm 5 mps 752 mmHg 82%
    09:00 +2°C° 0.3 mm 5 mps 752 mmHg 81%
    10:00 +3°C° 0.3 mm 6 mps 751 mmHg 80%
    11:00 +3°C° 0.1 mm 5 mps 751 mmHg 79%
    12:00 +5°C° 0.1 mm 5 mps 751 mmHg 78%
    13:00 +5°C° 0.1 mm 5 mps 750 mmHg 77%
    14:00 +5°C° 0.1 mm 5 mps 750 mmHg 79%
    15:00 +4°C° 0.1 mm 4 mps 750 mmHg 81%
    16:00 +4°C° 0.1 mm 3 mps 749 mmHg 82%
    17:00 +4°C° 0.1 mm 4 mps 749 mmHg 83%
    18:00 +4°C° 0.1 mm 4 mps 749 mmHg 83%
    19:00 +4°C° 0.1 mm 4 mps 749 mmHg 84%
    20:00 +4°C° 0.1 mm 4 mps 749 mmHg 84%
    21:00 +4°C° 0.1 mm 4 mps 749 mmHg 84%
    22:00 +4°C° 0.1 mm 4 mps 748 mmHg 84%
    23:00 +4°C° 0.1 mm 4 mps 748 mmHg 85%

    29 November, Wednesday

    Time Temperature Precipitation Wind Pressure Humidity
    00:00 +4°C° 0.1 mm 4 mps 748 mmHg 85%
    01:00 +4°C° 0.1 mm 4 mps 748 mmHg 86%
    02:00 +3°C° 0.3 mm 4 mps 748 mmHg 86%
    03:00 +3°C° 0.3 mm 4 mps 748 mmHg 86%
    04:00 +3°C° 0.3 mm 4 mps 747 mmHg 86%
    05:00 +3°C° 0 mm 4 mps 747 mmHg 87%
    06:00 +2°C° 0 mm 3 mps 747 mmHg 88%
    07:00 +2°C° 0 mm 3 mps 747 mmHg 90%
    08:00 +2°C° 0 mm 3 mps 748 mmHg 87%
    09:00 +3°C° 0 mm 3 mps 748 mmHg 85%
    10:00 +3°C° 0 mm 4 mps 748 mmHg 83%
    11:00 +4°C° 0 mm 4 mps 748 mmHg 79%
    12:00 +5°C° 0 mm 4 mps 747 mmHg 75%
    13:00 +5°C° 0 mm 3 mps 747 mmHg 72%
    14:00 +5°C° 0 mm 3 mps 747 mmHg 74%
    15:00 +4°C° 0 mm 3 mps 747 mmHg 76%
    16:00 +4°C° 0 mm 3 mps 747 mmHg 78%
    17:00 +3°C° 0 mm 3 mps 747 mmHg 80%
    18:00 +3°C° 0 mm 3 mps 747 mmHg 81%
    19:00 +2°C° 0 mm 3 mps 747 mmHg 83%
    20:00 +2°C° 0 mm 3 mps 747 mmHg 83%
    21:00 +2°C° 0 mm 3 mps 747 mmHg 84%
    22:00 +2°C° 0 mm 3 mps 746 mmHg 85%
    23:00 +1°C° 0 mm 3 mps 746 mmHg 85%
    Show more